Regional Weather Roundup
Issued by NWS

Home | Current Version | Previous Version | Graphics & Text | Print | Product List | Glossary On
Versions: 1 2 3 4 5 6 7 8 9 10 11 12 13 14 15 16 17 18 19 20 21 22 23 24 25 26 27 28 29 30 31 32 33 34 35 36 37 38 39 40 41 42 43 44 45 46 47 48 49 50
000
ASUS43 KMKX 252317
RWRWI

WISCONSIN REGIONAL WEATHER ROUNDUP
NATIONAL WEATHER SERVICE MILWAUKEE/SULLIVAN WI
600 PM CDT MON MAY 25 2015

NOTE: "FAIR" INDICATES FEW OR NO CLOUDS BELOW 12,000 FEET WITH NO
SIGNIFICANT WEATHER AND/OR OBSTRUCTIONS TO VISIBILITY.

WIZ001-002-006>008-014>016-023>028-260000-
NORTHWEST WISCONSIN

CITY           SKY/WX    TMP DP  RH WIND       PRES   REMARKS
SUPERIOR ARPT  CLOUDY    46  46  99 NE8       29.74S
ASHLAND        CLOUDY    55  54  96 NE6       29.72R
HAYWARD        CLOUDY    66  56  70 SW10      29.74R
SIREN          CLOUDY    65  57  75 SW7       29.73S
CUMBERLAND     CLOUDY    63  55  77 SW9       29.75S
RICE LAKE      CLOUDY    66  57  71 SW6       29.76F
CHETEK         CLOUDY    67  59  74 SW7       29.75S
LADYSMITH      CLOUDY    67  59  75 W10       29.78R
EAU CLAIRE     NOT AVBL
MENOMONIE      MOSUNNY   71  59  64 W10       29.74S
NEW RICHMOND   MOSUNNY   69  58  68 W14       29.74F
OSCEOLA        PTSUNNY   70  59  68 SW9       29.75F
$$

WIZ003>005-009-010-017-018-260000-
NORTH CENTRAL WISCONSIN

CITY           SKY/WX    TMP DP  RH WIND       PRES   REMARKS
MANITOWISH WTR CLOUDY    66  60  80 SW13G25   29.73S
ARBOR VITAE    PTSUNNY   69  61  75 SW14G22   29.74S
WOODRUFF       PTSUNNY   69  61  75 SW14G22   29.74S
RHINELANDER    PTSUNNY   70  58  65 SW13G22   29.77R
EAGLE RIVER    PTSUNNY   67  59  75 SW9G16    29.74S
LAND O LAKES   PTSUNNY   67  61  80 SW5       29.74S
PHILLIPS       CLOUDY    66  58  76 SW10      29.75R
TOMAHAWK       PTSUNNY   69  58  68 SW6       29.77R
MEDFORD        MOSUNNY   69  60  72 SW10G16   29.78R
MERRILL        PTSUNNY   70  60  70 W12       29.78R
$$

WIZ029-030-035-036-043>047-260000-
CENTRAL WISCONSIN

CITY           SKY/WX    TMP DP  RH WIND       PRES   REMARKS
WAUSAU         MOSUNNY   71  60  68 W7        29.75S
MOSINEE        NOT AVBL
MARSHFIELD     MOSUNNY   74  59  59 W10       29.77R
STEVENS POINT  MOSUNNY   74  58  57 W10G23    29.78R
WAUPACA        MOSUNNY   79  59  50 SW14      29.77F HX  80
WAUTOMA        NOT AVBL
WISC RAPIDS    RAIN      67  61  81 W12G18    29.79R
CAMP DOUGLAS   PTSUNNY   72  63  73 W15G24    29.79R
$$

WIZ011>013-019>022-031-037>040-048>050-260000-
NORTHEAST WISCONSIN

CITY           SKY/WX    TMP DP  RH WIND       PRES   REMARKS
ANTIGO         PTSUNNY   69  60  74 W17G24    29.78S
SHAWANO        MOSUNNY   78  60  54 W8        29.76S
OCONTO         MOSUNNY   77  61  58 W14G23    29.75S
STURGEON BAY   SUNNY     75  61  60 SW17G23   29.79S
GREEN BAY      MOSUNNY   77  63  61 SW9       29.77F
MANITOWOC      NOT AVBL
APPLETON       PTSUNNY   75  61  60 SW14      29.79F
CLINTONVILLE   PTSUNNY   77  61  57 SW12G17   29.76S
OSHKOSH        MOSUNNY   76  62  62 SW12      29.79F
$$

WIZ032>034-041-042-053>061-260000-
SOUTHWEST WISCONSIN

CITY           SKY/WX    TMP DP  RH WIND       PRES   REMARKS
LA CROSSE      PTSUNNY   72  63  73 SW8       29.77F
SPARTA         PTSUNNY   64  59  85 W7        29.82R
VIROQUA        PTSUNNY   76  59  56 SW20G25   29.82R
BOSCOBEL       MOSUNNY   80  61  52 SW13G30   29.81R HX  81
PRAIRIE DU CHI PTSUNNY   77  58  51 S16       29.81R
PLATTEVILLE    MOSUNNY   77  63  62 SW20G26   29.85F
$$

WIZ056-057-062-063-064-067-068-260000-
SOUTH CENTRAL WISCONSIN

CITY           SKY/WX    TMP DP  RH WIND       PRES   REMARKS
REEDSBURG      PTSUNNY   76  64  65 SW18G26   29.81R
BARABOO/DELLS  PTSUNNY   76  59  55 SW18G25   29.81R
LONE ROCK      NOT AVBL
MINERAL POINT  MOSUNNY   77  61  57 SW15G28   29.85S
MADISON        PTSUNNY   77  59  53 SW12G22   29.84R
MIDDLETON      PTSUNNY   78  58  49 SW17      29.84S
WATERTOWN      PTSUNNY   77  62  59 SW15G25   29.84S
MONROE         PTSUNNY   77  59  53 SW16G32   29.88R
JANESVILLE     MOSUNNY   79  61  53 SW17G23   29.87R HX  80
$$

WIZ051-052-058>065-066-070>072-260000-
SOUTHEAST WISCONSIN

CITY           SKY/WX    TMP DP  RH WIND       PRES   REMARKS
MILWAUKEE      PTSUNNY   78  60  53 SW22G28   29.86F
WAUKESHA       PTSUNNY   73  59  60 SW12G25   29.87S
MILWAUKEE/TIMM PTSUNNY   79  57  47 SW14G24   29.85F HX  80
RACINE         PTSUNNY   77  59  53 SW17G29   29.89S
BURLINGTON     MOSUNNY   76  60  57 SW16G24   29.88S
KENOSHA        MOSUNNY   78  61  55 SW20G29   29.89S HX  80
FOND DU LAC    MOSUNNY   77  60  55 SW17G25   29.81S
SHEBOYGAN      MOSUNNY   76  61  59 SW14G25   29.82S
WEST BEND      MOSUNNY   77  59  53 SW18G24   29.84F
JUNEAU         MOSUNNY   76  62  61 SW17G25   29.84F
$$

LSZ147-162-260000-
LAKE SUPERIOR

STATION/POSITION TIME  TEMP    WIND        PRES    WAVE
                       AIR SEA DIR/SP/G            HT/PER
                 (UTC) (F)     (DEG/KT/KT) (MB)    (FT/S)
W MID LAKE BUOY  2150   39 36   20/ 10/ 10 1064.0R   3/ 5
DEVILS ISLAND    2200   42      50/  9/ 10 1071.0R
PORT WING        2100   43      20/  8/ 10 1064.0R
SAXON HARBOR     2100   49        CALM     1061.0R
$$

LMZ867-665-643>646-260000-
LAKE MICHIGAN

STATION/POSITION TIME  TEMP    WIND        PRES    WAVE
                       AIR SEA DIR/SP/G            HT/PER
                 (UTC) (F)     (DEG/KT/KT) (MB)    (FT/S)
CHAMBERS ISLAND  2100   67     180/  4/ 13 1071.0R
N MID LAKE BUOY  2150   43 37  200/ 16/ 17 1079.0R   4/ 6
NORTHPORT PIER   2200   58     160/  4/  9 1075.0R
SISTER BAY       2217   74     210/ 16/ 21   N/A
KEWAUNEE LAKESHO 2200          240/  9/ 20 1079.0R
SHEBOYGAN LAKESH 2200          230/ 18/ 21   N/A
PORT WASHINGTON  2100   80     260/ 12/ 20   N/A
ATWATER BUOY     2200   71 45  210/ 16/ 23   N/A
MILWAUKEE LAKESH 2200   76     230/ 16/ 26   N/A
S MID LAKE BUOY  2150   46 38  200/ 10/ 12   N/A     2/ 5
KENOSHA   LAKESH 2200   78     220/ 20/ 27   N/A
$$

TC  - TEMPERATURE IN CELSIUS
VSB - VISIBILITY IN STATUTE MILES
WCI - WIND CHILL INDEX
HX  - HEAT INDEX



USA.gov is the U.S. government's official web portal to all federal, state and local government web resources and services.